Regional Weather Roundup
Issued by NWS

Home | Current Version | Previous Version | Text Only | Print | Product List | Glossary On
Versions: 1 2 3 4 5 6 7 8 9 10 11 12 13 14 15 16 17 18 19 20 21 22 23 24 25 26 27 28 29 30 31 32 33 34 35 36 37 38 39 40 41 42 43 44 45 46 47 48 49 50
466
ASUS44 KFWD 250203
RWRTX
NORTH TEXAS HOURLY WEATHER ROUNDUP
NATIONAL WEATHER SERVICE FORT WORTH TX
900 PM CDT TUE APR 24 2018

NOTE: "FAIR" INDICATES FEW OR NO CLOUDS BELOW 12,000 FEET WITH NO
SIGNIFICANT WEATHER AND/OR OBSTRUCTIONS TO VISIBILITY.

TXZ118-119-250300-
DALLAS/FORT WORTH METROPLEX

CITY           SKY/WX    TMP DP  RH WIND       PRES   REMARKS
DFW AIRPORT    CLOUDY    74  48  39 E5        30.01R
DALLAS LOVE    MOCLDY    76  49  38 E5        30.01R
FTW MEACHAM    FAIR      78  52  40 NE8       30.01R
DAL-EXECUTIVE  FAIR      74  52  46 E5        30.01R
FTW-ALLIANCE   CLOUDY    73  53  49 NE6       30.02R
FTW-NAS-JRB    FAIR      77  51  40 NE8       30.01R
FTW-SPINKS     FAIR      73  55  53 E3        30.03R
ARLINGTON      FAIR      74  53  48 E5        30.02R
GRAND PRAIRIE  CLEAR     75  50  41 E6        30.04R
ADDISON        MOCLDY    75  46  35 NE5       30.03
MESQUITE       FAIR      70  49  48 CALM      30.02R
LANCASTER      FAIR      73  52  47 CALM      30.03R
$$

TXZ091>094-102>105-117-120-121-131>134-250300-
NORTH CENTRAL TEXAS

CITY           SKY/WX    TMP DP  RH WIND       PRES   REMARKS
SHRMAN/DENISON FAIR      68  52  56 CALM      30.05R
GAINESVILLE    FAIR      70  48  45 CALM      30.07R
BOWIE          FAIR      68  53  58 E3        30.04R
BRIDGEPORT     FAIR      70  52  52 CALM      30.05R
DECATUR        FAIR      70  51  51 CALM      30.03S
DENTON         FAIR      69  54  58 N6        30.03R
MCKINNEY       FAIR      71  51  49 E3        30.03R
BONHAM         FAIR      65  52  62 CALM      30.03R
ROCKWALL       HAZE      69  54  59 MISG      30.03R VSB 3/4
TERRELL        FAIR      71  51  49 CALM      30.02R
WAXAHACHIE     FAIR      70  55  59 CALM      30.03R
CLEBURNE       FAIR      73  55  53 E9        30.03R
GRANBURY       FAIR      75  55  49 E5        30.02R
$$

TXZ083>090-098>101-113>116-127>130-139>142-154-155-250300-
WESTERN NORTH TEXAS

CITY           SKY/WX    TMP DP  RH WIND       PRES   REMARKS
WICHITA FALLS  FAIR      69  56  62 E8        30.02R
WF-KICKAPOO    FAIR      73  53  49 NE7       30.05R
VERNON         MOCLDY    73  49  42 E6        30.06R
ABILENE        TSTM      63  58  83 SW10      30.13R
ABILENE-DYESS  LGT RAIN  65  55  70 E20       30.03F
GRAHAM           N/A     73  53  50 NE5       30.01R
BRECKENRIDGE   FAIR      78  51  39 E8        30.01R
CISCO          FAIR      77  55  47 E8        30.02R
EASTLAND       FAIR      76  55  47 E8        30.01R
RANGER         FAIR      74  54  49 E8        30.03R
MINERAL WELLS  FAIR      73  54  51 E6        30.01R
STEPHENVILLE   FAIR      73  54  51 E7        30.04R
COMANCHE       FAIR      75  56  52 SE8       30.00R
BROWNWOOD      FAIR      77  55  47 E12G18    29.99R
COLEMAN        FAIR      80  53  39 E14G20    29.99R
BRADY          FAIR      79  46  31 SE8       29.98R
$$

TXZ143>147-156>162-174-175-250300-
CENTRAL TEXAS

CITY           SKY/WX    TMP DP  RH WIND       PRES   REMARKS
WACO           FAIR      73  56  54 E7        29.99R
WACO-TSTC      CLEAR     72  59  64 E5        30.00R
WACO-MCGREGOR  FAIR      73  57  57 E7        30.00R
HILLSBORO      FAIR      70  59  67 E7        30.01R
CORSICANA      FAIR      70  56  61 E5        30.03R
MEXIA          FAIR      70  56  61 W6        30.01R
HEARNE         FAIR      73  60  65 CALM      30.01R
CAMERON        FAIR      75  60  60 SE3       29.99R
TEMPLE         FAIR      72  58  61 E5        30.00R
KILLEEN        NOT AVBL
KILLEEN-SKYLRK FAIR      76  59  55 SE7       30.00R
FORT HOOD      FAIR      75  58  55 SE7       29.96R
GATESVILLE     FAIR      73  57  56 CALM      30.01R
HAMILTON       FAIR      72  57  58 SE8       30.01R
LAMPASAS       FAIR      74  58  57 SE6       29.99R
$$

TXZ095>097-106>112-122>126-135>138-148>153-164>167-250300-
EAST TEXAS

CITY           SKY/WX    TMP DP  RH WIND       PRES   REMARKS
PARIS          FAIR      68  51  54 N3        30.03S
SULPHUR SPRNGS FAIR      67  52  57 CALM      30.05R
MOUNT PLEASANT FAIR      65  55  71 CALM      30.04R
GILMER         FAIR      64  54  70 CALM      30.03R THUNDER
MINEOLA        FAIR      63  52  67 CALM      30.03R
TYLER          FAIR      69  50  50 CALM      30.02R
LONGVIEW       FAIR      63  57  81 S3        30.02R
MARSHALL       FAIR      60  55  82 CALM      30.04S
ATHENS         FAIR      68  54  60 CALM      30.01R
PALESTINE      FAIR      69  55  60 NE5       30.02S
JACKSONVILLE   FAIR      71  50  47 CALM      30.05R
HENDERSON      FAIR      62  55  76 CALM      30.04R
CENTER         FAIR      61  55  80 CALM      30.04R
NACOGDOCHES      N/A     62  57  83 CALM      30.03R
LUFKIN         FAIR      67  58  72 CALM      30.01R
$$

SUPPLEMENTAL OBSERVATIONS (NWS FORT WORTH AREA)

CITY           SKY/WX    TMP DP  RH WIND       PRES   REMARKS
$$

SUPPLEMENTAL OBSERVATIONS (NWS NORMAN AREA)

CITY           SKY/WX    TMP DP  RH WIND       PRES   REMARKS
GOODLETT         N/A     65  45  48 N21G26    30.09R
ODELL            N/A     69  49  50 N15       30.08R
CROWELL          N/A     75  51  42 E9        30.06R
KNOX CITY        N/A     76  52  41 E7        30.06R
SEYMOUR          N/A     75  51  43 NE9       30.04R
$$

SUPPLEMENTAL OBSERVATIONS (NWS SAN ANGELO AREA)

CITY           SKY/WX    TMP DP  RH WIND       PRES   REMARKS
WEINERT          N/A     77  52  41 SE10      30.06R
HASKELL          N/A     70  56  60 E7G14     30.04R
THROCKMORTON     N/A     74  55  50 E9        30.04R
STAMFORD         N/A     66  61  84 SE13      30.04F
CLYDE            N/A     62  56  83 N6        30.13R
$$

SUPPLEMENTAL OBSERVATIONS (NWS SHREVEPORT AREA)

CITY           SKY/WX    TMP DP  RH WIND       PRES   REMARKS
$$

SUPPLEMENTAL OBSERVATIONS ARE A COLLECTION OF AUTOMATED INSTRUMENTS
THAT ARE MAINTAINED BY A VARIETY OF FEDERAL AND STATE AGENCIES.
CERTAIN ELEMENTS...SUCH AS HUMIDITY VALUES AND SUSTAINED WIND
SPEEDS...MAY BE APPROXIMATED.





USA.gov is the U.S. government's official web portal to all federal, state and local government web resources and services.